Weather Roundup
Issued by NWS

Home | Current Version | Previous Version | Graphics & Text | Print | Product List | Glossary Off
Versions: 1 2 3 4 5 6 7 8 9 10 11 12 13 14 15 16 17 18 19 20 21 22 23 24 25 26 27 28 29 30 31 32 33 34 35 36 37 38 39 40 41 42 43 44 45 46 47 48 49 50

000
NZUS93 KARX 290859
HRRWXR

CURRENT HOURLY OBSERVATIONS ACROSS
MUCH OF THE UPPER MISSISSIPPI VALLEY
NATIONAL WEATHER SERVICE LA CROSSE WI
400 AM CDT SUN MAR 29 2015


...SOUTHEAST MINNESOTA...


CITY           SKY/WX    TMP DP  RH WIND       PRES   REMARKS
ROCHESTER      PTCLDY    30  21  69 S25G33    29.90F WCI  16
ROCHESTER/MAYO FAIR      32  21  64 S13G22    29.90S WCI  22
WINONA         MOCLDY    34  19  55 S7        29.95F WCI  28
AUSTIN         PTCLDY    32  21  64 S18G24    29.88F WCI  20
ALBERT LEA     DRIZZLE   36  25  64 S20G30    29.82F WCI  25
DODGE CENTER   MOCLDY    32  25  74 S28G33    29.84F WCI  18
PRESTON        PTCLDY    29  20  68 S18       29.92S WCI  17
OWATONNA       MOCLDY    34  25  69 S24G32    29.78F WCI  21
FARIBAULT      MOCLDY    36  25  64 S22G28    29.77F WCI  24
$$

...ELSEWHERE IN MINNESOTA...


CITY           SKY/WX    TMP DP  RH WIND       PRES   REMARKS
MINNEAPOLIS    LGT RAIN  36  26  67 S21G26    29.80F WCI  25
INTNL FALLS    CLOUDY    38  25  59 S12G18    29.47F WCI  30
DULUTH         MOCLDY    35  18  49 S20       29.69F WCI  24
RED WING       MOCLDY    36  19  51 S13G25    29.87F WCI  27
REDWOOD FALLS  CLOUDY    41  33  73 S14       29.71F
MANKATO        CLOUDY    37  25  60 S21G31    29.74F WCI  27
WORTHINGTON    CLOUDY    39  30  70 S22       29.72F WCI  29
FAIRMONT       CLOUDY    36  28  75 S26G33    29.75F WCI  23
$$

...SOUTHWEST WISCONSIN...


CITY           SKY/WX    TMP DP  RH WIND       PRES   REMARKS
LA CROSSE      MOCLDY    36  18  48 S14       29.96F WCI  27
PRAIRIE DU CHI CLEAR     34  16  48 SE5       30.03F WCI  29
BOSCOBEL       FAIR      34  17  50 S14       30.03F WCI  25
LONE ROCK      NOT AVBL
PLATTEVILLE    PTCLDY    32  20  63 S16       30.05F WCI  21
FORT MC COY    MOCLDY    34  14  44 S16       29.99F WCI  23
VIROQUA        FAIR      31  18  57 S14G20    29.97F WCI  21
WIS DELLS      NOT AVBL
$$

...ELSEWHERE IN WISCONSIN...


CITY           SKY/WX    TMP DP  RH WIND       PRES   REMARKS
MILWAUKEE      MOCLDY    28  13  53 S10       30.13F WCI  19
MADISON        PTCLDY    32  16  51 S13G22    30.07F WCI  22
GREEN BAY      MOCLDY    29  20  69 S10       30.04F WCI  20
EAU CLAIRE     NOT AVBL
BLACK RVR FLS  FAIR      34  13  41 S7        29.95F WCI  28
MEDFORD        MOCLDY    30  17  57 S14       29.91F WCI  19
WAUSAU         CLOUDY    31  14  49 S13       29.93F WCI  21
WIS RAPIDS     CLOUDY    32  12  43 S12G20    29.99F WCI  23
MARSHFIELD     CLOUDY    32  15  49 S13       29.93F WCI  22
RICE LAKE      MOCLDY    34  16  48 S18G25    29.86F WCI  23
$$

...NORTHEAST IOWA...


CITY           SKY/WX    TMP DP  RH WIND       PRES   REMARKS
DECORAH        MOCLDY    32  19  59 S15G24    29.95F WCI  22
MASON CITY     MOCLDY    34  25  69 S21G26    29.90F WCI  22
CHARLES CITY   CLEAR     32  21  64 S20G25    29.93F WCI  20
OELWEIN        MOCLDY    32  19  59 S21G29    29.98F WCI  20
$$

...ELSEWHERE IN IOWA...


CITY           SKY/WX    TMP DP  RH WIND       PRES   REMARKS
DES MOINES     MOCLDY    38  27  64 S15       29.95F WCI  29
IOWA CITY      CLEAR     32  20  61 SE13      30.07F WCI  22
FORT DODGE     CLOUDY    36  27  69 S17G25    29.83F WCI  25
$$

...NORTHERN ILLINOIS...


CITY           SKY/WX    TMP DP  RH WIND       PRES   REMARKS
CHICAGO-OHARE  MOCLDY    27  15  61 S10       30.17F WCI  17
CHICAGO-MIDWAY PTCLDY    30  14  51 S9        30.19F WCI  22
MOLINE         FAIR      31  18  58 SE7       30.10F WCI  24
ROCKFORD       CLEAR     28  17  63 S14       30.14F WCI  17
PEORIA         PTCLDY    33  19  56 S15       30.17F WCI  23
$$

NOTE: "FAIR" INDICATES FEW OR NO CLOUDS BELOW 12,000 FEET WITH NO
SIGNIFICANT WEATHER AND/OR OBSTRUCTIONS TO VISIBILITY. WIND
SPEEDS ARE IN MILES-PER-HOUR.



USA.gov is the U.S. government's official web portal to all federal, state and local government web resources and services.